Austin, TX

1:12 PM CST on February 10, 2016 (GMT -0600)
Austin Bergstrom International

Weather History for KAUS - February, 2013

Change the Weather History Date:

Wednesday, February 27, 2013

  Actual Average Record
Temperature  
Mean Temperature 47 °F 55 °F  
Max Temperature 65 °F 67 °F 89 °F (2009)
Min Temperature 29 °F 42 °F 13 °F (2002)
Degree Days  
Heating Degree Days 18 11  
Month to date heating degree days 243 361  
Since 1 July heating degree days 1301 1603  
Cooling Degree Days 0 1  
Month to date cooling degree days 10 7  
Year to date cooling degree days 28 12  
Growing Degree Days 5 (Base 50)    
Moisture  
Dew Point 26 °F    
Average Humidity 47    
Maximum Humidity 75    
Minimum Humidity 19    
Precipitation  
Precipitation 0.00 in 0.10 in 0.28 in (1947)
Month to date precipitation 0.64 2.27  
Year to date precipitation 3.35 4.47  
Snow  
Snow 0.00 in - - ()
Month to date snowfall 0.0  
Since 1 July snowfall T  
Snow Depth 0.00 in    
Sea Level Pressure  
Sea Level Pressure 30.08 in    
Wind  
Wind Speed 12 mph (NNW)    
Max Wind Speed 26 mph    
Max Gust Speed 36 mph    
Visibility 10 miles    
Events      
T = Trace of Precipitation, MM = Missing Value Source: NWS Daily Summary

Daily Weather History Graph

Daily Weather History Graph

Search for Another Location

Airport or City:

Trip Planner

Search our weather history database for the weather conditions in past years. The results will help you decide how hot, cold, wet, or windy it might be!

Date:

Astronomy

Feb. 27, 2013 Rise Set
Actual Time 6:58 AM CST 6:28 PM CST
Civil Twilight 6:34 AM CST 6:52 PM CST
Nautical Twilight 6:06 AM CST 7:20 PM CST
Astronomical Twilight 5:38 AM CST 7:48 PM CST
Moon 8:36 PM CST (2/27) 7:46 AM CST (2/27)
Length of Visible Light 12h 18m
Length of Day
11h 29m
Waning Gibbous, 96% of the Moon is Illuminated
Feb 27
Waning Gibbous
Mar 4
Last Quarter
Mar 11
New
Mar 19
First Quarter
Mar 27
Full

Hourly Weather History & Observations

Time (CST) Temp. Windchill Dew Point Humidity Pressure Visibility Wind Dir Wind Speed Gust Speed Precip Events Conditions
12:53 AM 33.1 °F - 26.1 °F 75% 29.90 in 10.0 mi Calm Calm - N/A   Scattered Clouds
1:53 AM 34.0 °F 31.0 °F 26.1 °F 73% 29.90 in 10.0 mi SW 3.5 mph - N/A   Scattered Clouds
2:53 AM 44.1 °F 40.1 °F 27.0 °F 51% 29.88 in 10.0 mi SSW 6.9 mph - N/A   Mostly Cloudy
3:53 AM 42.1 °F 37.7 °F 27.0 °F 55% 29.89 in 10.0 mi South 6.9 mph - N/A   Mostly Cloudy
4:53 AM 41.0 °F - 30.0 °F 65% 29.92 in 10.0 mi Calm Calm - N/A   Mostly Cloudy
5:53 AM 46.0 °F 44.8 °F 34.0 °F 63% 29.96 in 10.0 mi SSW 3.5 mph - N/A   Overcast
6:53 AM 48.0 °F - 32.0 °F 54% 29.96 in 10.0 mi WSW 4.6 mph - N/A   Overcast
7:53 AM 55.0 °F - 25.0 °F 31% 30.01 in 10.0 mi WNW 13.8 mph 20.7 mph N/A   Mostly Cloudy
8:53 AM 50.0 °F - 28.0 °F 43% 30.08 in 10.0 mi NW 19.6 mph 28.8 mph N/A   Mostly Cloudy
9:53 AM 53.1 °F - 30.9 °F 43% 30.12 in 10.0 mi NNW 23.0 mph 29.9 mph N/A   Mostly Cloudy
10:53 AM 57.9 °F - 32.0 °F 37% 30.14 in 10.0 mi North 24.2 mph 32.2 mph N/A   Mostly Cloudy
11:53 AM 62.1 °F - 32.0 °F 32% 30.14 in 10.0 mi NNW 16.1 mph 23.0 mph N/A   Mostly Cloudy
12:53 PM 62.1 °F - 30.9 °F 31% 30.14 in 10.0 mi North 21.9 mph 26.5 mph N/A   Scattered Clouds
1:53 PM 64.9 °F - 30.0 °F 27% 30.12 in 10.0 mi NNW 15.0 mph 27.6 mph N/A   Mostly Cloudy
2:53 PM 64.0 °F - 25.0 °F 23% 30.12 in 10.0 mi North 12.7 mph 21.9 mph N/A   Mostly Cloudy
3:53 PM 64.0 °F - 24.1 °F 22% 30.11 in 10.0 mi NNW 12.7 mph 20.7 mph N/A   Mostly Cloudy
4:53 PM 63.0 °F - 19.9 °F 19% 30.12 in 10.0 mi North 16.1 mph 23.0 mph N/A   Scattered Clouds
5:53 PM 60.1 °F - 21.9 °F 23% 30.12 in 10.0 mi North 17.3 mph 24.2 mph N/A   Scattered Clouds
6:53 PM 53.1 °F - 23.0 °F 31% 30.15 in 10.0 mi North 12.7 mph - N/A   Scattered Clouds
7:53 PM 50.0 °F - 24.1 °F 36% 30.17 in 10.0 mi North 10.4 mph - N/A   Partly Cloudy
8:53 PM 48.0 °F - 21.0 °F 34% 30.21 in 10.0 mi North 9.2 mph - N/A   Partly Cloudy
9:53 PM 50.0 °F - 18.0 °F 28% 30.21 in 10.0 mi North 10.4 mph - N/A   Clear
10:53 PM 46.0 °F 42.5 °F 19.0 °F 34% 30.22 in 10.0 mi North 6.9 mph - N/A   Partly Cloudy
11:53 PM 45.0 °F 39.7 °F 19.9 °F 37% 30.24 in 10.0 mi North 10.4 mph - N/A   Clear